Santa Ana, CA

10:00 PM PST on November 23, 2017 (GMT -0800)
John Wayne-Orange County

Weather History for KSNA - March, 2012

Change the Weather History Date:

Thursday, March 22, 2012

  Actual Average Record
Temperature  
Mean Temperature 60 °F 60 °F  
Max Temperature 68 °F 68 °F 80 °F (2008)
Min Temperature 52 °F 52 °F 45 °F (2006)
Degree Days  
Heating Degree Days 5 5  
Month to date heating degree days 130 134  
Since 1 July heating degree days 934 1040  
Cooling Degree Days 0 0  
Month to date cooling degree days 8 0  
Year to date cooling degree days 23 8  
Growing Degree Days 8 (Base 50)    
Moisture  
Dew Point 49 °F    
Average Humidity 74    
Maximum Humidity 96    
Minimum Humidity 52    
Precipitation  
Precipitation 0.00 in 0.03 in 0.50 in (2005)
Month to date precipitation 0.57 1.65  
Year to date precipitation 1.94 7.51  
Since 1 July precipitation 4.39  
Snow  
Snow 0.00 in - - ()
Month to date snowfall 0.0  
Year to date snowfall 0.0  
Snow Depth 0.00 in    
Sea Level Pressure  
Sea Level Pressure 29.93 in    
Wind  
Wind Speed 6 mph (SSW)    
Max Wind Speed 13 mph    
Max Gust Speed 16 mph    
Visibility 8 miles    
Events      
T = Trace of Precipitation, MM = Missing Value Source: NWS Daily Summary

Daily Weather History Graph

Daily Weather History Graph

Search for Another Location

Airport or City:

Trip Planner

Search our weather history database for the weather conditions in past years. The results will help you decide how hot, cold, wet, or windy it might be!

Date:

Astronomy

Mar. 22, 2012 Rise Set
Actual Time 6:51 AM PDT 7:05 PM PDT
Civil Twilight 6:26 AM PDT 7:29 PM PDT
Nautical Twilight 5:57 AM PDT 7:59 PM PDT
Astronomical Twilight 5:28 AM PDT 8:28 PM PDT
Moon 6:35 AM PDT (3/22) 7:30 PM PDT (3/22)
Length of Visible Light 13h 03m
Length of Day
12h 13m
New Moon, 0% of the Moon is Illuminated
Mar 22
New Moon
Mar 30
First Quarter
Apr 6
Full
Apr 13
Last Quarter
Apr 21
New

Hourly Weather History & Observations

Time (PDT) Temp. Dew Point Humidity Pressure Visibility Wind Dir Wind Speed Gust Speed Precip Events Conditions
2:53 AM 54.0 °F 46.9 °F 77% 29.94 in 10.0 mi North - - N/A   Clear
3:53 AM 54.0 °F 46.9 °F 77% 29.92 in 10.0 mi South 3.5 mph - N/A   Clear
4:53 AM 54.0 °F 46.0 °F 75% 29.92 in 10.0 mi Calm Calm - N/A   Clear
5:18 AM 53.6 °F 48.2 °F 82% 29.92 in 10.0 mi Calm Calm - N/A   Partly Cloudy
5:39 AM 53.6 °F 48.2 °F 82% 29.92 in 10.0 mi Calm Calm - N/A   Mostly Cloudy
5:53 AM 53.1 °F 50.0 °F 89% 29.92 in 10.0 mi Calm Calm - N/A   Overcast
6:11 AM 53.6 °F 48.2 °F 82% 29.92 in 9.0 mi Calm Calm - N/A   Mostly Cloudy
6:34 AM 51.8 °F 48.2 °F 88% 29.93 in 3.0 mi West 3.5 mph - N/A   Scattered Clouds
6:45 AM 51.8 °F 50.0 °F 94% 29.93 in 1.0 mi Calm Calm - N/A   Mostly Cloudy
6:53 AM 52.0 °F 50.0 °F 93% 29.94 in 1.0 mi West 3.5 mph - N/A   Overcast
7:50 AM 51.8 °F 48.2 °F 88% 29.94 in 2.0 mi Calm Calm - N/A   Mostly Cloudy
7:53 AM 52.0 °F 50.0 °F 93% 29.94 in 2.0 mi South 3.5 mph - N/A   Mostly Cloudy
8:00 AM 53.6 °F 50.0 °F 88% 29.94 in 2.0 mi Calm Calm - N/A   Scattered Clouds
8:08 AM 53.6 °F 48.2 °F 82% 29.94 in 4.0 mi Calm Calm - N/A   Scattered Clouds
8:53 AM 57.0 °F 48.0 °F 72% 29.94 in 10.0 mi Calm Calm - N/A   Partly Cloudy
9:53 AM 62.1 °F 46.9 °F 58% 29.95 in 10.0 mi SSW 4.6 mph - N/A   Clear
10:53 AM 63.0 °F 50.0 °F 63% 29.95 in 10.0 mi Variable 4.6 mph - N/A   Clear
11:53 AM 64.9 °F 50.0 °F 58% 29.95 in 10.0 mi SW 8.1 mph - N/A   Clear
12:53 PM 64.9 °F 48.9 °F 56% 29.94 in 10.0 mi SSW 10.4 mph - N/A   Clear
1:53 PM 66.0 °F 48.9 °F 54% 29.91 in 10.0 mi SSW 8.1 mph - N/A   Clear
2:53 PM 64.9 °F 48.9 °F 56% 29.90 in 10.0 mi WSW 9.2 mph - N/A   Partly Cloudy
3:53 PM 64.0 °F 50.0 °F 60% 29.90 in 10.0 mi SW 10.4 mph - N/A   Partly Cloudy
4:53 PM 63.0 °F 51.1 °F 65% 29.90 in 10.0 mi SSW 8.1 mph - N/A   Partly Cloudy
5:53 PM 60.1 °F 51.1 °F 72% 29.90 in 10.0 mi SW 8.1 mph - N/A   Clear
6:53 PM 55.9 °F 50.0 °F 80% 29.91 in 10.0 mi SSW 9.2 mph - N/A   Partly Cloudy
7:49 PM 55.4 °F 50.0 °F 82% 29.92 in 10.0 mi WSW 5.8 mph - N/A   Mostly Cloudy
7:50 PM 55.0 °F 50.0 °F 83% 29.92 in 10.0 mi WSW 5.8 mph - N/A   Mostly Cloudy
8:53 PM 54.0 °F 50.0 °F 86% 29.94 in 10.0 mi SW 9.2 mph - N/A   Overcast
9:53 PM 54.0 °F 50.0 °F 86% 29.97 in 10.0 mi SW 6.9 mph - N/A   Overcast
10:53 PM 55.0 °F 50.0 °F 83% 29.99 in 10.0 mi South 4.6 mph - N/A   Overcast
11:29 PM 55.4 °F 50.0 °F 82% 30.00 in 10.0 mi SSE 3.5 mph - N/A   Overcast
11:53 PM 55.0 °F 50.0 °F 83% 30.00 in 10.0 mi ESE 3.5 mph - N/A   Overcast